TIMESTAMP,CO2_1_1_1,H2O_1_1_1,TAU_1_1_1,TAU_SSITC_TEST_1_1_1,H_1_1_1,H_SSITC_TEST_1_1_1,LE_1_1_1,LE_SSITC_TEST_1_1_1,FC_1_1_1,FC_SSITC_TEST_1_1_1,WD_0_0_1,WS_0_0_1,WS_MAX_0_0_1,U_SIGMA_0_0_1,V_SIGMA_0_0_1,W_SIGMA_0_0_1,USTAR_0_0_1,MO_LENGTH_0_0_1,ZL_0_0_1,FETCH_MAX_0_0_1,FETCH_70_0_0_1,FETCH_80_0_0_1,FETCH_90_0_0_1,PA_0_0_1,RH_0_0_1,TA_0_0_1,VPD_0_0_1,T_SONIC_0_0_1,T_SONIC_SIGMA_0_0_1
[yyyymmddHHMMSS],[mmolCO2 mol-1],[mmolH2O mol-1],[kg m-1 s-2],[#],[W m-2],[#],[W m-2],[#],[umolCO2 m-2 s-1],[#],[Decimal degrees],[m s-1],[m s-1],[m s-1],[m s-1],[m s-1],[m s-1],[m],[#],[m],[m],[m],[m],[kPa],[%],[deg C],[hPa],[deg C],[deg C]
20240627003000,425.49433902485424,11.156561687251791,0.34022958364012018,0,30.579146296664103,0,-9999.,-9999.,-0.64898703099646460,0,340.78532804207714,2.3247808867966651,6.0752355514109837,1.0807345901923200,0.73947338360520087,0.57871044986221098,0.54494220510573399,-444.35674987480843,-4.2758436786102597E-002,119.33454896306461,218.18161530679635,261.10766916014444,326.87581762532699,94.781578549285726,67.039333333333332,13.845000000000027,5.2004040538837737,14.483982865821872,0.17399929222307481
20240627010000,425.88492000183265,11.358917943995552,0.17124742799478168,0,-10.538333393717322,1,-9999.,-9999.,0.32590834912559541,2,338.25822197918751,1.3222201015348196,4.5686644720108971,0.73912213391512416,0.43651253064471668,0.36842310103417847,0.38636269381191024,459.61563053135347,4.1338890015629882E-002,130.06892927917156,237.80748607964841,284.59482395791156,356.27894834495368,94.800925856987845,69.773333333333341,13.509999999999991,4.6662371367045239,14.214119646708241,0.16287360707644183
20240627013000,426.16881682504197,11.493655355333759,1.7050313841162488E-002,1,-3.0811568634578039,1,-9999.,-9999.,-0.20964433250071057,2,331.35010402530258,1.2693367872094474,2.2098781678153165,0.32982501270936276,0.18000432872268274,0.13563809806464489,0.12183920328102633,49.306260155173419,0.38534660589151254,149.66192059427189,1405.0000000000000,2588.0000000000000,7034.0000000000000,94.821135977864586,72.009666666666661,13.210333333333324,4.2373766931369392,13.968988377041342,7.9353263969649188E-002
20240627020000,429.50204093080447,11.391875868589839,9.6455696931497005E-003,1,-3.5216574393311140,1,-9999.,-9999.,-1.7936791475690287E-003,1,329.16701975968215,1.7860903812428948,2.6349394822123964,0.21737751049342505,0.22384777988720392,0.10462085522532599,9.1593572221586150E-002,18.326750624952552,1.0367358834539273,487.91401921257363,5087.0000000000000,9661.0000000000000,-9999.,94.818924941189238,72.713999999999999,12.925000000000011,4.0544186340660664,13.789785692003079,0.13363783402907858
20240627023000,433.99910217869768,11.479553916784981,1.1943458613086809E-002,0,-9.0721346953898241,1,-9999.,-9999.,1.1380588564915906,2,341.18619364651533,1.6349599576332761,2.7023799911285473,0.34571346718188384,0.26673248458057675,0.12061880061637394,0.10179856987341894,9.7678764824557778,1.9451515418040115,366.27300130052669,3240.0000000000000,5871.0000000000000,-9999.,94.832958422743062,76.514333333333326,12.267666666666685,3.3424189472847550,13.189353944566562,0.28729958930324456
20240627030000,435.70243783107895,11.516469062186207,7.4579846008414798E-003,0,0.82287833939446497,2,-9999.,-9999.,-0.42059255271688356,2,338.58916377295753,1.6071319079729516,2.9422556691801289,0.36628813136327915,0.28113178810761208,0.10784245469792747,8.0399046588556886E-002,-53.060491233626074,-0.35808187143128278,318.30097959034862,1020.0000000000000,1411.0000000000000,2335.0000000000000,94.854014762586814,78.058666666666667,12.016333333333307,3.0713791270345769,12.926125047471828,0.23599634679661555
20240627033000,436.65793228065513,11.655114124739457,3.7629458560424506E-003,1,-0.89194853479300706,1,-9999.,-9999.,-0.20159636044897278,1,353.06484088670811,0.87218322441496554,2.3154099542367224,0.31029434530305999,0.27332289427869871,8.1463439931224152E-002,5.7086585158663751E-002,17.523871963328421,1.0842352671693003,323.72334419942649,3143.0000000000000,5846.0000000000000,-9999.,94.855546767578133,80.227000000000004,11.782666666666671,2.7255098458572640,12.609251132541203,0.17366227784546229
20240627040000,439.62672480715088,11.719623606088978,2.7072145632623008E-003,1,10.840605507655756,1,-9999.,-9999.,-4.7498517122607913,1,9.2640927107925108,1.2117918030024353,2.2003029489559682,0.35150486382101170,0.24084129039292235,0.11265550258468489,4.8389548094483079E-002,-0.87810661910982735,-21.637463590994312,76.851879726279250,214.00000000000000,286.00000000000000,448.00000000000000,94.848418144314238,82.802000000000007,11.387333333333345,2.3093903839760856,12.208098997328079,0.29713725273761166
20240627043000,446.53077655609900,12.015195960515312,6.0761292255688652E-003,1,2.0673792526249910,1,-9999.,-9999.,-1.7427778642038250,1,6.1864050367380798,1.0391362665613593,2.4438532914542899,0.36392769047449752,0.25173629292422323,0.13317757886829898,7.2426695187960244E-002,-15.440403318285707,-1.2305378045079138,143.77845006114674,430.00000000000000,586.00000000000000,943.00000000000000,94.854148046657869,88.023333333333341,10.842333333333329,1.5511072114759827,11.772115718211808,0.23911417785564917
20240627050000,446.28494784056625,12.028580339523224,2.4610362925158455E-003,1,-1.2742883223582044,0,-9999.,-9999.,-0.15981182501435454,2,18.325029292541501,1.1169311796738008,1.8956960791743407,0.27194011536836227,0.20049545526125528,8.8501636129497976E-002,4.6101440254879097E-002,6.4614992903217763,2.9404940163746143,822.02710408480982,7443.0000000000000,-9999.,-9999.,94.876341285807300,87.226666666666674,10.999333333333311,1.6716438328704157,11.928140875922338,0.12252173734322563
20240627053000,449.26109983208499,12.259810792669017,1.8590987509759216E-003,1,0.49247795195321303,2,-9999.,-9999.,-1.0134613746998768,1,39.935584886178759,0.69216472255907657,1.2926986991128304,0.17706557778542495,0.13840747020823851,4.5075175830608862E-002,4.0073985688793841E-002,-10.982611338137472,-1.7300075014055980,157.59877174913427,462.00000000000000,625.00000000000000,997.00000000000000,94.885323278645842,88.469999999999999,11.074333333333357,1.5164656192781922,12.018956236097551,7.6377588075933228E-002
20240627060000,445.72287565675691,11.928419108772223,7.7521511703991181E-003,1,4.9642918563391369E-002,2,-9999.,-9999.,-1.6556437927948910,2,288.37592706027846,0.62239875135398892,1.1638043579449833,0.25908700216955055,0.17850513765372342,3.0727804968512483E-002,8.1826048849221927E-002,-927.60132388195223,-2.0482937562536257E-002,105.20585203756835,518.00000000000000,800.00000000000000,1596.0000000000000,94.904773118237088,85.789999999999992,11.127999999999986,1.8756199110757847,12.021582284404531,8.2071143545485684E-002
20240627063000,445.92518646942733,12.221184010236268,1.6627532275479317E-002,0,-3.9877601095918540,0,-9999.,-9999.,-1.9860922517665260,1,226.86801085291523,1.4859655245360446,2.5111373733803988,0.43498518020481680,0.45272046911781361,0.14074081667431049,0.11978514059806247,36.234757967837240,0.52435840793706456,206.05296998543366,2015.0000000000000,3758.0000000000000,-9999.,94.929636350260424,89.140000000000001,10.920333333333360,1.4138025972828450,11.824419586181648,0.20758773139357337
20240627070000,447.14988818874991,12.029261112101613,2.9181454826509214E-002,1,0.23411793081224438,2,-9999.,-9999.,-0.66676344354727879,1,223.05019610316458,1.8309546049700918,3.3743010304717340,0.38271449879386843,0.23902418846702303,0.14663295127967099,0.15870234592684429,-1435.3600122980242,-1.3237097200151779E-002,188.26038145047033,956.00000000000000,1488.0000000000000,3011.0000000000000,94.933823740451402,87.239999999999995,11.007000000000005,1.6707498178080322,11.913770953708308,0.23808768732347677
20240627073000,455.01136566705378,12.829401719276705,3.7072957985632080E-002,0,-8.9202853070799755,0,-9999.,-9999.,1.9793060234013724,2,219.01516074223957,2.3616704985596728,3.7158491432142928,0.45330805449692074,0.41614436819940631,0.22468006017500336,0.17883363625533316,53.909890911880154,0.35243996377319620,215.10923497054225,2103.0000000000000,3920.0000000000000,-9999.,94.932475711805537,94.496666666666670,10.773666666666657,0.70949121051204889,11.714235594007732,0.19695919093386594
20240627080000,458.66379962418165,12.694276486762414,1.9155788721819500E-002,1,0.41722435143507824,2,-9999.,-9999.,0.17727838177546085,1,259.78887777858807,1.3228694200168001,2.4360665960224615,0.41794810548095579,0.39878482751188171,8.8774752792828135E-002,0.12863262755270835,-428.88171725048244,-4.4301258915411666E-002,165.15053264161602,731.00000000000000,1098.0000000000000,2088.0000000000000,94.920798872829863,91.359999999999999,11.120333333333349,1.1398388852839163,12.111303260803197,0.18860724824558073
20240627083000,452.00042390728481,12.126727701315129,1.1577565915561061E-002,1,-1.9624353209530518,1,-9999.,-9999.,-1.7298722557447834,1,255.85953350551455,2.2474502687649140,2.9904734998781377,0.29519464448375327,0.24973088994286749,0.11067905220583614,0.10003091377390867,42.876506758554527,0.44313311499447666,484.98639460675054,5308.0000000000000,-9999.,-9999.,94.920572536892365,85.989999999999995,11.343999999999994,1.8759041344110006,12.193633216010198,0.14140321318220200
20240627090000,449.52937927711537,12.108595969254628,2.2598348433405857E-002,1,-7.8128795945148557,1,-9999.,-9999.,0.68525312578912201,1,259.22724727744452,2.2695172269365989,3.8560464644850256,0.45427666319070570,0.34288260817712685,0.14303067432805025,0.13971931197461743,29.347217759227416,0.64742082727845573,329.20680197651421,3407.0000000000000,6457.0000000000000,-9999.,94.920306285550822,86.659999999999997,11.204333333333352,1.7697280859595594,12.075241933958978,0.18262457484694616
20240627093000,447.06102201860460,12.056462957308311,2.2813263887470268E-002,1,-7.9875584805389517,1,-9999.,-9999.,1.0035790557897737,1,255.41917951590750,2.0801085887577457,3.2130102121027821,0.32186393233830074,0.21134347406652179,0.12768930624256938,0.14033173389125067,29.088811218088534,0.65317210310007701,284.81992132225520,2884.0000000000000,5431.0000000000000,-9999.,94.941282707465277,87.086666666666673,11.068666666666672,1.6977673770248680,11.956797653198237,0.14955360167421147
20240627100000,451.47168805571613,12.011202734733516,1.4467164080872140E-002,1,-4.4746584865678773,1,-9999.,-9999.,-0.18529058478635166,2,261.59581099958552,2.2069076751584498,3.2778569161475435,0.38241857074117397,0.29905852294615975,0.10990450200378324,0.11172825486888174,26.208842247172363,0.72494617735546429,457.90930476165403,4937.0000000000000,9466.0000000000000,-9999.,94.956663116753461,87.166666666666671,11.000666666666689,1.6796448303603371,11.921780567593089,0.16991872544460335
20240627103000,448.64430971303420,11.883020818498967,1.5337338528931065E-002,0,-9.7728327559169959,0,-9999.,-9999.,0.32596574056578415,2,269.18619585914365,2.0809529542843750,3.5503110302019780,0.32804913395555574,0.71612910714353539,0.15030196015661679,0.11499263589966241,13.084427724622140,1.4521078338218796,453.43541932637470,4396.0000000000000,8175.0000000000000,-9999.,94.974196744357641,87.200000000000003,10.836333333333357,1.6570760908142597,11.756025423685742,0.20584967132159032
20240627110000,454.14804219830069,12.095815017011569,4.7173866080791702E-002,0,-19.633098301797414,0,-9999.,-9999.,-0.16131782193484853,2,213.81344566023159,2.7968684818682421,4.5234059725933946,0.54654766405976363,0.40793214409404882,0.29360725116697639,0.20147028777265610,35.035755484283698,0.54230313396618490,92.642503709462886,169.38004359200792,202.70465191287451,253.76217038588612,95.001760479166663,91.849999999999994,10.327666666666687,1.0199096880521621,11.283373174031567,0.40515833364104492
20240627113000,456.12433810244164,12.458449075013938,4.7591501245254188E-003,1,-5.7778917419773785,1,-9999.,-9999.,1.3713316816094345,1,230.55794576186605,1.2142283810519183,2.7247789563529041,0.43872528486219348,0.22636028352357820,0.12104073623146702,6.4071541137973267E-002,3.8289160538311338,4.9622398958026244,446.70032887935417,3369.0000000000000,5837.0000000000000,-9999.,94.986624676432285,90.750000000000000,10.949333333333357,1.2065296945781825,11.900205182393506,0.21091244233051168
20240627120000,452.58295825264844,12.814684979295970,3.9020199663744114E-002,1,6.7794054707406586,0,-9999.,-9999.,-1.0055553694759973,1,202.29741372174959,1.0592633152186464,2.3065239270682176,0.38408780461013881,0.32969099335380525,0.23061028406787487,0.18359471485063203,-76.782101557608470,-0.24745350302432895,62.656529141368942,227.00000000000000,325.00000000000000,566.00000000000000,94.984109007378478,91.099999999999994,11.315666666666687,1.1894522074430278,12.247547272576185,0.21883011430415561
20240627123000,453.13742267328286,13.292859628864115,0.15472849390158228,0,40.967445463316736,0,-9999.,-9999.,-0.97192547204307678,2,218.65012523252074,1.8198325449777593,4.2195782596384035,0.71998102581533274,0.54903749698518867,0.38778412644594429,0.36612286453832732,-100.79190613672222,-0.18850719991570430,119.58710677850550,218.64337154260619,261.66027344022064,327.56761260957302,95.005718772569438,89.450000000000003,12.150333333333322,1.4898987667482810,13.139496826171921,0.30548217135564282
20240627130000,441.62551348045588,12.998449520730922,0.11407654222567148,1,49.438998936992974,0,-9999.,-9999.,13.942635408877154,1,231.44405014042385,1.8287607095999627,4.3792409374050560,0.61795903240571248,0.63347767806217248,0.43073902575442613,0.31483116720021853,-53.101345195043713,-0.35780637816635558,97.441889825016887,178.15485209693372,213.20585657590743,266.90843250572635,94.997657713948314,82.732666666666660,12.997333333333358,2.5779184724106701,13.913248169928920,0.26587338858176124
20240627133000,430.59510920477101,12.334412341444589,0.11928226098511961,1,96.990585138448651,0,-9999.,-9999.,-4.4355878668796302,1,241.09998988488715,1.5925306521255196,4.0376455649139720,0.67514211340433727,0.83757976545448554,0.45449823759652141,0.32216377714676825,-29.001075085824770,-0.65514812619091056,95.080291329586245,173.83709685407746,208.03860632028486,260.43964835390830,95.002930734809027,76.009333333333331,13.493333333333339,3.6995366858650187,14.354741697523423,0.33969697749347588
20240627140000,425.19377614021539,11.736732958966424,6.1453666103981147E-002,0,71.362685689108645,0,17.115357247015996,2,-0.47809285447720312,2,225.86785967128819,1.1549044890274933,4.2783131492084525,0.81182885194150989,0.93657260742516357,0.45168365011732747,0.23141489852158334,-14.607677753764115,-1.3006858667253984,73.333169499103050,134.07642225918630,160.45523384818819,200.87091246722900,95.004475660590288,69.995666666666665,13.997333333333302,4.7810203843832122,14.719450504726808,0.34480190481399597
20240627143000,424.90984640102295,10.798515203724859,6.3640607263561300E-002,0,61.622966071535849,0,-9999.,-9999.,-4.3675907270057586,1,243.64201904853223,1.3736805952634417,3.8374827624639010,0.84458034685630179,0.84746267857897239,0.42767954548439646,0.23560079299511044,-17.847076175275205,-1.0646001514983177,77.714402840109301,142.08671412925153,170.04150735956608,212.87178935487717,94.994457534071174,63.045999999999999,14.323666666666668,6.0142670385435553,14.949799420674708,0.36619145928755947
20240627150000,421.86044667667306,10.125200592269216,0.17503253713426786,1,172.73617892524720,0,-34.231437998317425,1,5.4415967161014773,1,256.62267478816472,1.6018971799078356,5.3285654584342037,0.97336679496726852,0.88132176212409397,0.55887259637337927,0.39108186657833605,-29.116476669244765,-0.65255148196104973,94.106320099057967,172.05636681248004,205.90752726529141,257.77179026009662,94.989424624999998,56.914333333333332,14.910333333333313,7.2829367167775922,15.377392695109052,0.46424606032052640
20240627153000,420.10340141917209,10.550522497351640,1.1903892470052449E-002,1,204.08689959700129,0,-18.082838333175477,2,-1.8814484722724121,2,262.21134761276494,1.0345387309032437,4.4035724711194106,0.92243119451817823,0.82608163396023515,0.55178195892548443,0.10210552349897253,-0.43853222964904442,-43.326348020544863,20.408582686099972,58.000000000000000,78.000000000000000,122.00000000000000,94.963082736111105,57.292666666666669,15.442999999999984,7.4704827889282521,15.851541459825285,0.52264728440142139
20240627160000,419.60168316460329,9.4804933733913082,0.11418697292323568,1,208.15036562473338,0,7.1827144400942293,1,-2.7604649044478555,1,269.49600343211756,1.5013846049462205,5.1524707827760947,0.87700095508564124,1.0119315907884965,0.60835083261738232,0.31647154645138070,-12.798003680622813,-1.4846065428757065,74.233399562831025,135.72232992933388,162.42496495867030,203.33678208075608,94.938492044270845,49.941666666666670,15.913333333333355,9.0240834305074813,16.220728941175707,0.52070048821321602
20240627163000,418.76112317920581,9.6252130395389184,0.32493483057105116,1,247.72397177312982,0,139.95301992766721,1,5.0790847844217177,2,211.49430503587388,1.2156624804293441,5.5046276257773741,1.0975453795489252,1.7417591817759266,0.63813004787367877,0.53429393802007386,-51.751216597006874,-0.36714112728895537,108.63049070565087,198.61118292796010,237.68685996085082,297.55574372213408,94.943840888411955,49.195333333333330,16.387666666666689,9.4400289364512115,16.710238430241361,0.60152431336598822
20240627170000,418.24368474905350,9.8634320733569378,0.35201140846338286,1,291.59314686707427,0,119.88236565772884,1,-2.2199166872990368,2,259.52125616430146,2.2563207456328382,7.3406268584654040,1.0786678423206038,1.0664942315213335,0.73139318938892095,0.55669191149624087,-49.720886354231034,-0.38213317165419319,100.65285526833480,184.02552101222196,220.23154787774496,275.70376431676857,94.913735804470491,48.856666666666669,16.875999999999976,9.8025440389654950,17.228829903496717,0.64115247713390355
20240627173000,417.69518470651724,10.181866638062010,0.32195056933895111,0,240.93827069225463,0,48.807328436433032,2,-3.5449898723428759,0,242.83646894489809,1.7599653715076407,6.0028221104991148,1.3585008061298998,1.1535953111693480,0.62169822339633607,0.53274832003023609,-52.740811463333237,-0.36025232590911666,110.66463854933777,202.33025394439986,242.13763810353782,303.12758980823065,94.910219749131940,49.347999999999999,17.218999999999994,9.9216500475011280,17.591177430046969,0.62911923459793828
20240627180000,416.67876103018386,10.037913641230144,0.19759668748716738,1,263.50710619704893,0,60.453852503526420,2,3.0650750793742918,1,251.95465760649785,2.3378983745847384,6.9741621918767134,1.1409490215955453,0.87272927213684948,0.65493857971328662,0.41773497535309934,-23.243476713332736,-0.81743364963561471,87.380617964638290,159.75963825808429,191.19148381397477,239.34905012829040,94.882860686848957,47.287333333333336,17.664333333333332,10.619837414206536,17.901613785637778,0.59130837070507314
20240627183000,415.05171452074575,10.191627463133790,0.33695099678758333,1,258.85419610313096,0,-172.75330312098816,1,-0.85168536692674390,2,252.41743962063293,2.4997526955867957,7.0923681291634431,1.0594164502386985,1.7148246924686168,0.77034747973266526,0.54603671091695238,-52.836760592498997,-0.35959812424036736,95.078657421352105,173.83410954871715,208.03503127873699,260.43517282612021,94.858099043836802,46.570666666666668,18.144333333333350,11.094346792701099,18.396776835971423,0.60043668790674487
20240627190000,412.72142824798658,10.461298498596101,0.27584261903360957,1,126.74833791042616,0,13.449055865800990,2,-4.7397689046273248,0,217.96810011189646,2.3142535429559876,6.1674535719060684,0.96984944073976098,0.92976636018515280,0.64255523226065070,0.49421018968910579,-80.004802914290863,-0.23748574220418614,101.49762608849456,185.57003149730826,222.07993245491119,278.01772247008762,94.850904215919826,47.383000000000003,18.283666666666647,11.021661725517065,18.659125382895752,0.34135398433376035
20240627193000,412.11848326293705,10.724444282011541,0.27438401542160290,1,152.93351444396725,0,60.624762108908982,0,-3.5560296334751968,0,167.43985336739684,1.5023277911652151,6.6396766827171012,1.1982394650101595,1.4952091031534620,0.69890793793881978,0.49334667438015067,-65.955564428886376,-0.28807273752445706,94.763411139302846,173.25773880248624,207.34526270264124,259.57166441976517,94.835807931857630,47.215333333333334,18.734333333333325,11.373348532906125,19.105003517998625,0.43963313086085420
20240627200000,410.64772713403863,11.048479969518764,0.42295533212608938,1,252.25480596972210,0,-62.989808705462607,1,1.3545930160563597,2,240.06925858960915,1.8063853105899346,7.0270694098058213,1.2960372381333736,1.3656257571354136,0.80726718172076029,0.61338979536836458,-76.838379001284522,-0.24727226481030232,100.51486629561830,183.77323316077056,219.92962375477401,275.32579114242873,94.799136086700230,46.602333333333334,19.415000000000020,12.004332317238331,19.710368973984828,0.54441212634211233
20240627203000,409.75714053606890,10.899429683371357,0.59970730279043238,0,222.20979527303066,0,-20.680692057178533,2,-5.4008517946577825,0,230.38222197758023,2.1654718553887142,7.1693214512003296,1.4799057832835627,1.3165473456257146,0.80026080250522214,0.73074396303646505,-147.45084054432405,-0.12885650519088468,116.43454557023365,212.87948419605755,254.76237240377117,318.93225904665223,94.773255016493053,45.351999999999997,19.629666666666651,12.450416454127524,19.896745605468823,0.47134701903034271
20240627210000,407.93174939151578,11.199292777190676,0.29597764369292978,0,75.208736030411870,0,212.35030551464658,1,4.0493431433702689,1,198.22951021395292,2.2487623641122072,5.7478620219738605,0.98911242243629227,1.1617699751079766,0.63427269891348281,0.51335024328267365,-151.04573802406784,-0.12578971276218673,105.72193488328577,193.29341524837537,231.32285022520438,289.58875871397220,94.773093269748273,46.741666666666667,19.580666666666673,12.096939560397983,19.989324195014149,0.25645756385092033
20240627213000,407.46770228917342,11.937165679058083,0.24248015246420071,1,163.11106840851801,0,-215.03075430017208,1,-3.9947381541698266,1,153.68865845429875,1.1870487504141110,4.9854413719189745,0.96977257608904466,0.87851419098374706,0.56930366483309791,0.46522413029426324,-51.830044929077914,-0.36658274222989412,106.53921740646379,194.78766835963643,233.11108956181414,291.82742216320844,94.737539903522261,48.173999999999999,20.117000000000019,12.169557478605196,20.491087144278822,0.47331675594575962
20240627220000,405.25728252958766,12.176039993102540,0.27627563287211393,0,35.033267667312963,0,51.641831624541823,2,-0.56100560019751344,2,160.20578945120258,1.6966794505819667,7.6015202949597249,0.99929284119209272,0.99955400868599320,0.62598878009308689,0.49643530390649826,-293.15585070493916,-6.4811942024392569E-002,104.01399744240295,190.17076088773328,227.58583049256785,284.91045345960470,94.706564136935782,50.048333333333332,19.815333333333342,11.512323635557768,20.330503996107325,0.16551346690846969
20240627223000,405.65853434920876,12.025618911170001,0.37579243112077154,0,67.022108821014655,0,48.890218876220054,2,0.14217391524509171,2,179.64637519923789,2.5338050793661715,8.2107448151160973,1.3520925165107542,1.4067226806551021,0.69204541826366539,0.57940074952326426,-243.56744964175007,-7.8007139410237500E-002,108.62516866117814,198.60145253328491,237.67521516360210,297.54116581780062,94.680979899522569,48.324333333333335,20.176333333333332,12.178866701832581,20.619897096421994,0.29194787474161826
20240627230000,405.52655304367875,11.936834809534652,0.38429320110384962,0,108.87970740960863,0,75.471589961994738,2,-2.7160942039847775,0,169.98522070259355,2.4521936283055181,7.1585684361173403,1.3481361581443538,1.2100808205616407,0.75221785222428117,0.58627610752245463,-155.32105946285392,-0.12232726241829414,102.57977625165488,187.54854712965806,224.44771034689049,280.98189942009981,94.672862048828136,46.955333333333336,20.520333333333326,12.769913817169675,20.903149027506515,0.29895482307168630